Location: Newark
(40.7360°N, 74.1730°W)
Time: 11:13:03
(UTC-04:00)

Amateur Radio Satellites - All Passes

Search period start: 27 August 2016 10:43
Search period end: 28 August 2016 10:43
Location: Newark, 40.7360°N, 74.1730°W

Satellite Date Start Highest point End Downlink Frequencies (MHz)
Time Altitude Azimuth
GONETS M04 27 Aug 10:46:42 10:52:02 18° 77° (ENE) 10:57:23
POPSAT HIP 1 27 Aug 10:50:39 10:54:00 23° 67° (ENE) 10:57:21 437.405
ISS 27 Aug 10:57:28 11:00:01 20° 340° (NNW) 11:02:34 145.825
BEESAT 3 27 Aug 10:59:39 11:03:08 31° 310° (NW) 11:06:41 437.485
TIGRISAT 27 Aug 11:07:57 11:12:11 36° 262° (W) 11:16:23 435.000
RS-15 27 Aug 11:11:24 11:23:49 83° 241° (WSW) 11:35:57 29.354- 29.394
DELFI C3 27 Aug 11:14:17 11:18:05 43° 287° (WNW) 11:21:53 145.870
DUCHIFAT 1 27 Aug 11:18:14 11:22:12 39° 72° (ENE) 11:26:11 145.980
QB50P2 27 Aug 11:19:59 11:24:07 50° 73° (ENE) 11:28:17 145.880/145.840
POLYITAN 1 27 Aug 11:22:30 11:26:38 51° 73° (ENE) 11:30:48 437.675
CUBEBUG 1 27 Aug 11:26:35 11:27:40 11° 90° (E) 11:28:44 437.445
HUMSAT D 27 Aug 11:26:36 11:30:41 70° 284° (WNW) 11:34:44 437.325/437.525
DANDE 27 Aug 11:27:08 11:32:29 76° 80° (E) 11:39:34 436.750
NANOSAT C BR1 27 Aug 11:31:32 11:35:44 61° 74° (ENE) 11:39:57 145.865
UNISAT 6 27 Aug 11:37:51 11:40:54 17° 267° (W) 11:43:55 437.425
AUBIESAT-1 27 Aug 11:39:56 11:43:15 24° 99° (E) 11:46:22 437.475
M-CUBED/EXP-1 PRIME 27 Aug 11:44:52 11:48:41 35° 102° (ESE) 11:52:12 437.505
Oscar 11 27 Aug 11:46:39 11:47:37 11° 298° (WNW) 11:48:34 145.826/435.025
PCSat 27 Aug 11:52:18 11:57:27 48° 113° (ESE) 12:02:40 145.827
ESTCUBE 1 27 Aug 11:59:06 12:03:23 40° 98° (E) 12:07:38 437.505/2401.250
Cosmos 2499 27 Aug 12:08:04 12:15:51 48° 90° (E) 12:23:05 435.465 / 435.565
AISAT 27 Aug 12:09:42 12:13:34 28° 96° (E) 12:17:24 437.250
50 SAT 27 Aug 12:12:42 12:15:49 26° 96° (E) 12:18:56 437.505
BUGSAT 1 27 Aug 12:15:05 12:19:19 75° 75° (ENE) 12:23:35 437.445
QB50P1 27 Aug 12:15:34 12:19:35 39° 262° (W) 12:23:37 145.935-145.965
CUSAT 1 27 Aug 12:18:46 12:23:30 21° 272° (W) 12:28:48 437.405
JAS-2 27 Aug 12:19:53 12:25:04 86° 75° (ENE) 12:30:35 435.910
BEESAT 2 27 Aug 12:20:35 12:22:08 12° 320° (NW) 12:23:41 435.950
UKube-1 27 Aug 12:21:48 12:24:51 19° 94° (E) 12:27:53 .
POPSAT HIP 1 27 Aug 12:25:47 12:29:36 31° 263° (W) 12:33:26 437.405
ISS 27 Aug 12:35:57 12:37:27 12° 0° (N) 12:38:56 145.825
GONETS M04 27 Aug 12:38:48 12:47:34 88° 281° (W) 12:56:26
Gurwin Techsat 1B 27 Aug 12:44:19 12:47:16 15° 60° (ENE) 12:50:13 435.225
AIST 2 27 Aug 12:47:10 12:51:15 78° 120° (ESE) 12:55:23 435.215
DUCHIFAT 1 27 Aug 12:55:14 12:58:03 17° 267° (W) 13:00:52 145.980
VELOX 1 27 Aug 12:56:39 13:01:09 88° 96° (E) 13:05:36 145.980
QB50P2 27 Aug 12:58:02 13:00:12 14° 269° (W) 13:02:21 145.880/145.840
CUBEBUG 1 27 Aug 12:59:58 13:04:23 67° 285° (WNW) 13:08:45 437.445
POLYITAN 1 27 Aug 13:00:37 13:02:43 13° 269° (W) 13:04:51 437.675
NANOSAT C BR1 27 Aug 13:10:33 13:11:50 11° 270° (W) 13:13:07 145.865
DANDE 27 Aug 13:11:44 13:15:03 16° 270° (W) 13:18:48 436.750
Oscar 19 27 Aug 13:14:07 13:19:09 58° 72° (ENE) 13:24:15 437.125/150
AUBIESAT-1 27 Aug 13:14:17 13:17:39 25° 298° (WNW) 13:20:48 437.475
AO-7 27 Aug 13:14:57 13:17:58 12° 44° (NE) 13:20:58 29.400- 29.500
DX 1 27 Aug 13:15:26 13:19:52 85° 282° (WNW) 13:24:14 434.975-435.025
SPROUT 27 Aug 13:19:33 13:23:51 83° 103° (ESE) 13:28:06 437.525
M-CUBED/EXP-1 PRIME 27 Aug 13:19:57 13:22:55 19° 300° (WNW) 13:25:42 437.505
RS-15 27 Aug 13:26:19 13:34:21 21° 262° (W) 13:42:19 29.354- 29.394
PCSat 27 Aug 13:36:33 13:41:04 26° 311° (NW) 13:45:38 145.827
ESTCUBE 1 27 Aug 13:36:36 13:39:54 20° 294° (WNW) 13:43:12 437.505/2401.250
TISAT 1 27 Aug 13:40:31 13:44:10 28° 96° (E) 13:47:47 437.305
O/OREOS (USA 219) 27 Aug 13:43:47 13:47:48 34° 105° (ESE) 13:51:53 437.305
AO-85 27 Aug 13:43:59 13:47:28 23° 45° (NE) 13:50:45 145.980
AISAT 27 Aug 13:46:12 13:49:56 27° 292° (WNW) 13:53:38 437.250
50 SAT 27 Aug 13:46:37 13:49:13 19° 292° (WNW) 13:51:50 437.505
UKube-1 27 Aug 13:57:00 14:01:01 38° 289° (WNW) 14:05:00 .
Cosmos 2499 27 Aug 14:01:55 14:09:06 33° 287° (WNW) 14:15:52 435.465 / 435.565
ITUPSAT 1 27 Aug 14:07:31 14:07:56 10° 89° (E) 14:08:22 437.325
ISS 27 Aug 14:12:17 14:14:52 21° 21° (NNE) 14:17:27 145.825
Gurwin Techsat 1B 27 Aug 14:21:16 14:26:34 74° 256° (WSW) 14:31:55 435.225
ITAMSAT 1 27 Aug 14:27:44 14:32:33 40° 69° (ENE) 14:37:22 435.822/435.867
AIST 2 27 Aug 14:28:10 14:30:16 13° 319° (NW) 14:32:22 435.215
SWISSCUBE 27 Aug 14:37:41 14:41:40 26° 95° (E) 14:45:37 437.505
GONETS M04 27 Aug 14:39:59 14:45:42 19° 298° (WNW) 14:51:30
BEESAT 27 Aug 14:54:36 14:58:56 34° 97° (E) 15:03:16 436.000
Oscar 19 27 Aug 14:55:35 14:58:50 17° 269° (W) 15:02:07 437.125/150
AO-7 27 Aug 15:00:50 15:08:53 54° 65° (ENE) 15:16:55 29.400- 29.500
TISAT 1 27 Aug 15:16:19 15:19:41 24° 292° (WNW) 15:23:01 437.305
O/OREOS (USA 219) 27 Aug 15:23:37 15:27:16 24° 302° (WNW) 15:30:56 437.305
AO-85 27 Aug 15:24:10 15:27:59 35° 246° (WSW) 15:31:35 145.980
ITUPSAT 1 27 Aug 15:41:32 15:46:19 80° 286° (WNW) 15:51:05 437.325
ISS 27 Aug 15:48:21 15:51:38 73° 219° (SW) 15:54:54 145.825
ITAMSAT 1 27 Aug 16:07:57 16:12:07 24° 265° (W) 16:16:19 435.822/435.867
SWISSCUBE 27 Aug 16:15:13 16:19:27 33° 291° (WNW) 16:23:41 437.505
BEESAT 27 Aug 16:32:41 16:36:33 25° 294° (WNW) 16:40:24 436.000
YUBILEINY 27 Aug 16:38:39 16:46:03 29° 68° (ENE) 16:53:22 435.215
KKS-1 27 Aug 16:43:47 16:48:11 54° 101° (E) 16:52:31 437.445
MOZHAYETS 4 27 Aug 16:47:32 16:52:08 80° 104° (ESE) 16:56:43
AO-7 27 Aug 16:54:30 17:01:53 34° 263° (W) 17:09:19 29.400- 29.500
Cubesat XI-IV 27 Aug 16:56:29 16:59:07 14° 59° (ENE) 17:01:45 437.490
GOMX 1 27 Aug 16:58:36 17:00:56 13° 59° (ENE) 17:03:20 467.674
HORYU 2 27 Aug 17:03:34 17:08:01 73° 76° (ENE) 17:12:28 437.375
Cosmos 2504 27 Aug 17:05:19 17:07:07 11° 59° (ENE) 17:08:55 435.465 / 435.565
CUTE-I 27 Aug 17:07:28 17:10:55 18° 62° (ENE) 17:14:21 437.470
NOAA 15 27 Aug 17:08:49 17:12:49 23° 64° (ENE) 17:16:52 137.62
BRITE-PL 27 Aug 17:18:37 17:23:06 39° 70° (ENE) 17:27:58 437.365/2234.400
STARS 27 Aug 17:20:20 17:24:44 66° 102° (ESE) 17:29:04 437.465
LilacSat-2 27 Aug 17:33:17 17:36:08 20° 68° (ENE) 17:38:59 437.200
BEESAT 3 27 Aug 17:39:56 17:42:23 16° 43° (NE) 17:44:50 437.485
NOAA 18 27 Aug 17:43:55 17:48:52 35° 67° (ENE) 17:53:50 137.9125
CUBESAT XI-V 27 Aug 18:06:54 18:11:37 70° 102° (ESE) 18:16:18 437.345
Cosmos 2491 27 Aug 18:14:43 18:23:10 58° 91° (E) 18:31:41 435.465 / 435.565
KKS-1 27 Aug 18:21:44 18:24:17 15° 297° (WNW) 18:26:50 437.445
MOZHAYETS 4 27 Aug 18:27:25 18:28:38 11° 299° (WNW) 18:29:50
GOMX 1 27 Aug 18:33:06 18:38:09 86° 256° (WSW) 18:43:34 467.674
Cubesat XI-IV 27 Aug 18:33:07 18:38:28 82° 257° (WSW) 18:43:51 437.490
YUBILEINY 27 Aug 18:34:49 18:43:24 61° 269° (W) 18:51:53 435.215
DOVE 4 27 Aug 18:40:40 18:45:41 54° 73° (ENE) 18:50:51 437.250
CUTE 1.7 + AOD 2 27 Aug 18:44:46 18:45:04 10° 62° (ENE) 18:45:23 437.475
CUTE-I 27 Aug 18:45:09 18:50:26 63° 258° (WSW) 18:55:44 437.470
NOAA 15 27 Aug 18:47:16 18:52:16 46° 260° (W) 18:57:22 137.62
Cosmos 2504 27 Aug 18:54:46 19:02:02 71° 81° (E) 19:09:10 435.465 / 435.565
BRITE-PL 27 Aug 18:57:55 19:01:45 23° 269° (W) 19:05:50 437.365/2234.400
BEESAT 2 27 Aug 18:58:02 19:01:54 44° 53° (NE) 19:05:45 435.950
STARS 27 Aug 18:58:42 19:00:31 12° 298° (WNW) 19:02:20 437.465
LilacSat-2 27 Aug 19:06:57 19:10:16 27° 264° (W) 19:13:36 437.200
HO-68 27 Aug 19:08:55 19:15:28 40° 64° (ENE) 19:22:02 435.675
BEESAT 3 27 Aug 19:16:30 19:20:24 57° 242° (WSW) 19:24:16 437.485
CINEMA 3 27 Aug 19:22:52 19:27:34 41° 71° (ENE) 19:32:14 145.822/145.860
STRAND 1 27 Aug 19:23:43 19:27:43 23° 94° (E) 19:31:42 437.568
NOAA 18 27 Aug 19:24:37 19:29:30 32° 263° (W) 19:34:24 137.9125
UWE-3 27 Aug 19:42:35 19:44:30 13° 63° (ENE) 19:46:25 435.000/436.395/437.385
CUBEBUG 2 27 Aug 19:43:09 19:46:28 19° 66° (ENE) 19:49:44 437.445
CUBESAT XI-V 27 Aug 19:46:13 19:48:23 13° 298° (WNW) 19:50:34 437.345
AIST 1 27 Aug 19:49:02 19:52:15 20° 72° (ENE) 19:55:27
SEEDS 27 Aug 19:49:03 19:52:52 36° 72° (ENE) 19:56:42 437.485
ZACube-1 27 Aug 19:58:01 19:59:21 11° 63° (ENE) 20:00:40 437.345
CANX-2 27 Aug 20:09:58 20:14:10 75° 259° (WSW) 20:18:23 2200.000
Cosmos 2491 27 Aug 20:13:02 20:20:28 31° 291° (WNW) 20:28:00 435.465 / 435.565
CUTE 1.7 + AOD 2 27 Aug 20:16:06 20:20:17 74° 258° (WSW) 20:24:30 437.475
DOVE 4 27 Aug 20:20:08 20:23:41 19° 270° (W) 20:27:19 437.250
AAUSAT CUBESAT 2 27 Aug 20:20:19 20:24:13 44° 73° (ENE) 20:28:09 437.432
COMPASS 1 27 Aug 20:28:05 20:32:11 72° 76° (ENE) 20:36:19 437.405
BEESAT 2 27 Aug 20:36:55 20:39:22 16° 250° (WSW) 20:41:49 435.950
PCSat 27 Aug 20:40:21 20:45:24 37° 53° (NE) 20:50:24 145.827
Cosmos 2504 27 Aug 20:49:52 20:54:31 19° 280° (W) 20:59:09 435.465 / 435.565
HO-68 27 Aug 20:56:27 21:03:07 40° 262° (W) 21:09:50 435.675
CINEMA 3 27 Aug 21:00:53 21:04:47 23° 267° (W) 21:08:41 145.822/145.860
Oscar 11 27 Aug 21:01:58 21:06:09 53° 74° (ENE) 21:10:20 145.826/435.025
STRAND 1 27 Aug 21:02:15 21:07:01 41° 290° (WNW) 21:11:47 437.568
PRISM 27 Aug 21:03:37 21:07:03 24° 96° (E) 21:10:29 437.425
AIST 2 27 Aug 21:08:44 21:12:47 45° 53° (NE) 21:16:48 435.215
FUNcube-1 27 Aug 21:09:11 21:13:34 60° 75° (ENE) 21:17:53 145.935
UWE-3 27 Aug 21:15:51 21:20:25 68° 258° (WSW) 21:24:54 435.000/436.395/437.385
CUBEBUG 2 27 Aug 21:18:17 21:22:46 44° 261° (W) 21:27:10 437.445
SEEDS 27 Aug 21:25:53 21:28:41 17° 267° (W) 21:31:30 437.485
AIST 1 27 Aug 21:25:57 21:29:57 34° 269° (W) 21:33:55
ZACube-1 27 Aug 21:30:35 21:35:03 73° 258° (WSW) 21:39:27 437.345
AAUSAT CUBESAT 2 27 Aug 21:57:45 21:59:56 14° 268° (W) 22:02:08 437.432
DELFI C3 27 Aug 21:59:16 22:03:12 82° 257° (WSW) 22:07:10 145.870
Cosmos 2499 27 Aug 22:01:30 22:04:44 13° 62° (ENE) 22:07:56 435.465 / 435.565
HUMSAT D 27 Aug 22:17:06 22:21:15 75° 76° (ENE) 22:25:23 437.325/437.525
PCSat 27 Aug 22:23:56 22:28:40 31° 251° (WSW) 22:33:23 145.827
AUBIESAT-1 27 Aug 22:24:18 22:28:30 35° 65° (ENE) 22:32:43 437.475
ANTELSAT 27 Aug 22:29:06 22:32:28 22° 94° (E) 22:35:46 437.575/2403.000
M-CUBED/EXP-1 PRIME 27 Aug 22:29:38 22:34:08 48° 67° (ENE) 22:38:40 437.505
PRISM 27 Aug 22:38:46 22:42:18 27° 291° (WNW) 22:45:49 437.425
Oscar 11 27 Aug 22:40:34 22:42:35 13° 269° (W) 22:44:36 145.826/435.025
AIST 2 27 Aug 22:48:11 22:50:54 17° 250° (WSW) 22:53:37 435.215
FUNcube-1 27 Aug 22:48:24 22:50:09 12° 269° (W) 22:51:53 145.935
GONETS M04 27 Aug 22:49:38 22:58:06 46° 75° (ENE) 23:06:28
50 SAT 27 Aug 22:51:18 22:52:44 12° 65° (ENE) 22:54:12 437.505
ESTCUBE 1 27 Aug 22:58:20 23:02:23 35° 70° (ENE) 23:06:28 437.505/2401.250
TIGRISAT 27 Aug 22:59:28 23:03:36 45° 99° (E) 23:07:40 435.000
AISAT 27 Aug 23:06:52 23:10:30 25° 67° (ENE) 23:14:10 437.250
UKube-1 27 Aug 23:16:36 23:19:16 16° 64° (ENE) 23:21:57 .
UNISAT 6 27 Aug 23:28:01 23:32:20 78° 284° (WNW) 23:36:34 437.425
RS-15 27 Aug 23:29:12 23:34:27 14° 94° (E) 23:39:47 29.354- 29.394
JAS-2 27 Aug 23:29:47 23:33:08 14° 89° (E) 23:36:35 435.910
CUSAT 1 27 Aug 23:40:37 23:43:25 59° 97° (E) 23:46:54 437.405
Cosmos 2499 27 Aug 23:51:54 23:59:00 84° 82° (E) 00:06:10 435.465 / 435.565
VELOX 1 27 Aug 23:53:16 23:57:42 75° 74° (ENE) 00:02:10 145.980
O/OREOS (USA 219) 27 Aug 23:53:27 23:58:01 64° 66° (ENE) 00:02:35 437.305
CUBEBUG 1 27 Aug 23:55:08 23:59:32 86° 256° (WSW) 00:03:59 437.445
SO-50 27 Aug 23:58:13 00:03:04 80° 122° (ESE) 00:07:55 436.795
AUBIESAT-1 27 Aug 23:59:08 00:02:56 25° 260° (W) 00:06:46 437.475
BUGSAT 1 27 Aug 23:59:59 00:00:53 11° 90° (E) 00:01:46 437.445
QB50P1 28 Aug 00:00:31 00:04:18 32° 97° (E) 00:08:04 145.935-145.965
ANTELSAT 28 Aug 00:05:26 00:09:12 30° 290° (WNW) 00:12:55 437.575/2403.000
M-CUBED/EXP-1 PRIME 28 Aug 00:05:33 00:08:49 19° 263° (W) 00:12:07 437.505
DX 1 28 Aug 00:10:16 00:14:37 79° 76° (ENE) 00:19:02 434.975-435.025
POPSAT HIP 1 28 Aug 00:10:23 00:14:23 40° 98° (E) 00:18:20 437.405
SPROUT 28 Aug 00:12:23 00:16:37 59° 74° (ENE) 00:20:53 437.525
50 SAT 28 Aug 00:22:33 00:25:56 41° 261° (W) 00:29:22 437.505
TISAT 1 28 Aug 00:32:08 00:35:23 22° 67° (ENE) 00:38:38 437.305
ESTCUBE 1 28 Aug 00:35:52 00:39:16 21° 266° (W) 00:42:42 437.505/2401.250
TIGRISAT 28 Aug 00:37:19 00:39:54 16° 296° (WNW) 00:42:28 435.000
DUCHIFAT 1 28 Aug 00:37:50 00:42:03 77° 103° (ESE) 00:46:12 145.980
DANDE 28 Aug 00:38:55 00:41:29 84° 275° (W) 00:44:16 436.750
QB50P2 28 Aug 00:40:40 00:44:55 81° 283° (WNW) 00:49:07 145.880/145.840
AISAT 28 Aug 00:42:56 00:46:51 30° 263° (W) 00:50:48 437.250
POLYITAN 1 28 Aug 00:43:12 00:47:26 80° 286° (WNW) 00:51:37 437.675
GONETS M04 28 Aug 00:46:46 00:54:43 39° 274° (W) 01:02:38
UKube-1 28 Aug 00:50:46 00:54:55 46° 260° (W) 00:59:07 .
NANOSAT C BR1 28 Aug 00:51:44 00:55:56 68° 285° (WNW) 01:00:05 145.865
JAS-2 28 Aug 01:11:57 01:18:49 80° 103° (ESE) 01:26:25 435.910
ITUPSAT 1 28 Aug 01:13:07 01:15:20 13° 61° (ENE) 01:17:32 437.325
Oscar 19 28 Aug 01:26:44 01:30:37 21° 93° (E) 01:34:27 437.125/150
BUGSAT 1 28 Aug 01:32:34 01:36:38 59° 286° (WNW) 01:40:39 437.445
RS-15 28 Aug 01:33:02 01:44:22 70° 115° (ESE) 01:56:21 29.354- 29.394
O/OREOS (USA 219) 28 Aug 01:35:00 01:36:50 12° 262° (W) 01:38:40 437.305
QB50P1 28 Aug 01:36:41 01:39:54 21° 293° (WNW) 01:43:04 145.935-145.965
SO-50 28 Aug 01:40:59 01:44:08 17° 319° (NW) 01:47:16 436.795
SWISSCUBE 28 Aug 01:43:53 01:47:58 29° 68° (ENE) 01:52:04 437.505
POPSAT HIP 1 28 Aug 01:47:05 01:49:51 17° 295° (WNW) 01:52:36 437.405
Cosmos 2499 28 Aug 01:47:28 01:51:04 15° 281° (W) 01:54:42 435.465 / 435.565
SPROUT 28 Aug 01:51:22 01:52:56 12° 270° (W) 01:54:29 437.525
BEESAT 28 Aug 02:00:37 02:05:01 39° 70° (ENE) 02:09:26 436.000
TISAT 1 28 Aug 02:07:01 02:10:49 32° 263° (W) 02:14:40 437.305
PHONESAT 2.4 28 Aug 02:20:27 02:23:15 36° 160° (SSE) 02:26:03 2401.200-2431.200
Gurwin Techsat 1B 28 Aug 02:37:51 02:42:56 45° 98° (E) 02:48:00 435.225
ITAMSAT 1 28 Aug 02:42:18 02:44:56 14° 91° (E) 02:47:32 435.822/435.867
ITUPSAT 1 28 Aug 02:47:49 02:52:33 71° 257° (WSW) 02:57:20 437.325
JAS-2 28 Aug 02:58:29 03:03:14 21° 299° (WNW) 03:08:19 435.910
AO-7 28 Aug 03:04:55 03:09:26 15° 89° (E) 03:13:55 29.400- 29.500
Oscar 19 28 Aug 03:05:09 03:10:08 47° 290° (WNW) 03:15:06 437.125/150
SWISSCUBE 28 Aug 03:21:36 03:25:41 29° 264° (W) 03:29:49 437.505
BEESAT 28 Aug 03:39:17 03:42:54 22° 266° (W) 03:46:33 436.000
KKS-1 28 Aug 03:41:17 03:45:35 48° 72° (ENE) 03:49:55 437.445
RS-15 28 Aug 03:46:51 03:57:44 42° 321° (NW) 04:09:09 29.354- 29.394
MOZHAYETS 4 28 Aug 03:48:50 03:53:22 72° 75° (ENE) 03:57:56
PHONESAT 2.4 28 Aug 03:56:27 03:59:28 86° 173° (S) 04:02:28 2401.200-2431.200
STARS 28 Aug 04:16:20 04:20:40 56° 73° (ENE) 04:25:01 437.465
Gurwin Techsat 1B 28 Aug 04:18:26 04:22:35 24° 296° (WNW) 04:26:44 435.225
ITAMSAT 1 28 Aug 04:19:43 04:24:52 69° 287° (WNW) 04:30:00 435.822/435.867
Cosmos 2491 28 Aug 04:25:45 04:33:08 29° 68° (ENE) 04:40:28 435.465 / 435.565
AO-7 28 Aug 04:54:58 05:03:20 83° 107° (ESE) 05:11:38 29.400- 29.500
HORYU 2 28 Aug 04:56:24 04:58:38 14° 92° (E) 05:00:52 437.375
CUBESAT XI-V 28 Aug 05:09:40 05:14:13 64° 74° (ENE) 05:18:48 437.345
KKS-1 28 Aug 05:19:40 05:22:24 16° 268° (W) 05:25:08 437.445
BRITE-PL 28 Aug 05:24:32 05:28:00 16° 89° (E) 05:31:23 437.365/2234.400
MOZHAYETS 4 28 Aug 05:30:12 05:31:01 10° 271° (W) 05:31:50
PHONESAT 2.4 28 Aug 05:32:49 05:35:47 63° 193° (SSW) 05:38:44 2401.200-2431.200
AO-85 28 Aug 05:36:18 05:41:38 76° 120° (ESE) 05:46:40 145.980
YUBILEINY 28 Aug 05:39:31 05:47:06 34° 84° (E) 05:54:42 435.215
STARS 28 Aug 05:55:12 05:57:20 13° 269° (W) 05:59:30 437.465
RS-15 28 Aug 06:06:03 06:14:55 22° 354° (N) 06:23:58 29.354- 29.394
NOAA 18 28 Aug 06:07:38 06:10:24 14° 90° (E) 06:13:07 137.9125
Cosmos 2491 28 Aug 06:21:53 06:30:34 64° 268° (W) 06:39:14 435.465 / 435.565
HORYU 2 28 Aug 06:31:12 06:35:30 53° 288° (WNW) 06:39:47 437.375
GOMX 1 28 Aug 06:35:47 06:40:38 33° 95° (E) 06:45:14 467.674
STRAND 1 28 Aug 06:39:11 06:43:41 33° 68° (ENE) 06:48:12 437.568
LilacSat-2 28 Aug 06:40:14 06:43:33 29° 97° (E) 06:46:51 437.200
DOVE 4 28 Aug 06:41:45 06:44:42 16° 89° (E) 06:47:32 437.250
AO-7 28 Aug 06:49:02 06:55:10 24° 307° (NW) 07:01:18 29.400- 29.500
CUBESAT XI-V 28 Aug 06:50:13 06:52:01 12° 270° (W) 06:53:52 437.345
Cubesat XI-IV 28 Aug 06:50:48 06:55:49 41° 98° (E) 07:00:48 437.490
SO-50 28 Aug 06:51:55 06:53:19 11° 35° (NE) 06:54:42 436.795
BRITE-PL 28 Aug 07:01:16 07:06:57 70° 285° (WNW) 07:12:29 437.365/2234.400
NOAA 15 28 Aug 07:02:17 07:07:35 68° 102° (ESE) 07:12:52 137.62
CUTE-I 28 Aug 07:02:24 07:07:36 53° 100° (E) 07:12:47 437.470
PHONESAT 2.4 28 Aug 07:09:39 07:11:48 18° 208° (SSW) 07:13:57 2401.200-2431.200
AO-85 28 Aug 07:18:56 07:22:35 19° 317° (NW) 07:26:06 145.980
Cosmos 2504 28 Aug 07:31:24 07:39:43 63° 92° (E) 07:47:29 435.465 / 435.565
YUBILEINY 28 Aug 07:34:55 07:43:29 53° 284° (WNW) 07:52:06 435.215
NOAA 18 28 Aug 07:46:07 07:51:36 74° 286° (WNW) 07:57:01 137.9125
PRISM 28 Aug 07:53:23 07:56:08 18° 65° (ENE) 07:58:54 437.425
CANX-2 28 Aug 07:56:01 07:59:03 19° 93° (E) 08:02:04 2200.000
CUTE 1.7 + AOD 2 28 Aug 08:02:01 08:05:04 19° 93° (E) 08:08:06 437.475
COMPASS 1 28 Aug 08:13:13 08:14:42 12° 90° (E) 08:16:13 437.405
GOMX 1 28 Aug 08:13:51 08:18:36 32° 292° (WNW) 08:23:10 467.674
LilacSat-2 28 Aug 08:15:00 08:17:39 18° 292° (WNW) 08:20:17 437.200
DOVE 4 28 Aug 08:17:51 08:22:49 57° 287° (WNW) 08:27:29 437.250
STRAND 1 28 Aug 08:18:25 08:22:50 29° 264° (W) 08:27:16 437.568
AIST 1 28 Aug 08:20:09 08:21:30 11° 83° (E) 08:22:52
RS-15 28 Aug 08:22:24 08:33:01 32° 29° (NNE) 08:43:33 29.354- 29.394
HO-68 28 Aug 08:23:54 08:30:37 41° 99° (E) 08:37:16 435.675
Cosmos 2491 28 Aug 08:24:29 08:25:29 10° 288° (WNW) 08:26:29 435.465 / 435.565
ISS 28 Aug 08:27:47 08:30:51 38° 137° (SE) 08:33:57 145.825
SO-50 28 Aug 08:30:09 08:34:45 64° 55° (NE) 08:39:12 436.795
Cubesat XI-IV 28 Aug 08:31:21 08:35:40 26° 295° (WNW) 08:39:58 437.490
BRITE-PL 28 Aug 08:43:10 08:44:21 11° 303° (WNW) 08:45:32 437.365/2234.400
CUTE-I 28 Aug 08:43:25 08:47:15 21° 297° (WNW) 08:51:04 437.470
NOAA 15 28 Aug 08:43:32 08:46:47 17° 299° (WNW) 08:50:02 137.62
CINEMA 3 28 Aug 08:55:00 08:59:32 81° 285° (WNW) 09:03:51 145.822/145.860
FUNcube-1 28 Aug 09:00:17 09:01:03 10° 90° (E) 09:01:50 145.935
UWE-3 28 Aug 09:06:31 09:09:51 22° 94° (E) 09:13:07 435.000/436.395/437.385
BEESAT 3 28 Aug 09:07:08 09:10:16 23° 113° (ESE) 09:13:26 437.485
SEEDS 28 Aug 09:08:11 09:12:24 76° 102° (ESE) 09:16:37 437.485
CUBEBUG 2 28 Aug 09:09:35 09:13:31 37° 98° (E) 09:17:22 437.445
ZACube-1 28 Aug 09:20:02 09:23:08 20° 94° (E) 09:26:12 437.345
Cosmos 2504 28 Aug 09:26:42 09:33:32 27° 290° (WNW) 09:40:02 435.465 / 435.565
PRISM 28 Aug 09:27:21 09:31:09 37° 262° (W) 09:34:59 437.425
ANTELSAT 28 Aug 09:27:40 09:31:06 21° 67° (ENE) 09:34:31 437.575/2403.000
NOAA 18 28 Aug 09:30:15 09:31:17 11° 305° (NW) 09:32:18 137.9125
CANX-2 28 Aug 09:31:08 09:35:00 35° 289° (WNW) 09:38:52 2200.000
CUTE 1.7 + AOD 2 28 Aug 09:37:08 09:41:00 35° 289° (WNW) 09:44:51 437.475
AAUSAT CUBESAT 2 28 Aug 09:37:47 09:41:58 89° 95° (E) 09:46:09 437.432
DELFI C3 28 Aug 09:38:39 09:40:32 13° 91° (E) 09:42:24 145.870
COMPASS 1 28 Aug 09:46:29 09:50:36 56° 285° (WNW) 09:54:41 437.405
AIST 1 28 Aug 09:54:13 09:58:30 58° 280° (W) 10:02:51
TIGRISAT 28 Aug 09:57:26 10:01:44 40° 72° (ENE) 10:05:58 435.000
HUMSAT D 28 Aug 10:02:50 10:04:15 11° 91° (E) 10:05:39 437.325/437.525
ISS 28 Aug 10:04:28 10:07:23 28° 334° (NNW) 10:10:18 145.825
CUSAT 1 28 Aug 10:10:12 10:16:34 55° 78° (ENE) 10:24:08 437.405
HO-68 28 Aug 10:11:45 10:18:13 39° 296° (WNW) 10:24:41 435.675
SO-50 28 Aug 10:12:24 10:14:38 14° 252° (WSW) 10:16:50 436.795
Oscar 11 28 Aug 10:25:13 10:29:31 71° 285° (WNW) 10:33:48 145.826/435.025
UNISAT 6 28 Aug 10:25:54 10:30:32 87° 77° (ENE) 10:35:05 437.425
BEESAT 2 28 Aug 10:26:46 10:30:42 87° 303° (WNW) 10:34:42 435.950
FUNcube-1 28 Aug 10:33:37 10:37:42 59° 286° (WNW) 10:41:45 145.935
